Location: Lake Lucerne
(45.5315°N, 88.8489°W)
Time: 05:18:24
(UTC-05:00)

ISS - Visible Passes

Search period start: 02 July 2020 00:00
Search period end: 12 July 2020 00:00
Orbit: 417 x 420 km, 51.6° (Epoch: 02 July)

Date Brightness Start Highest point End Pass type
(mag) Time Alt. Az. Time Alt. Az. Time Alt. Az.
02 Jul -1.8 02:34:18 18° SE 02:34:18 18° SE 02:36:18 10° E visible
02 Jul -3.6 04:07:13 12° WSW 04:10:21 75° NNW 04:13:42 10° ENE visible
03 Jul -3.8 03:20:58 30° SW 03:22:28 73° SSE 03:25:50 10° ENE visible
04 Jul -3.3 02:34:41 45° SE 02:34:41 45° SE 02:37:52 10° ENE visible
04 Jul -2.6 04:08:16 10° W 04:11:27 40° NNW 04:14:40 10° NE visible
05 Jul -1.8 01:48:20 20° E 01:48:20 20° E 01:49:47 10° ENE visible
05 Jul -3.1 03:21:15 19° W 03:23:29 53° NNW 03:26:47 10° ENE visible
06 Jul -3.7 02:34:51 53° W 02:35:32 76° NNW 02:38:53 10° ENE visible
06 Jul -1.9 04:09:39 10° WNW 04:12:40 29° N 04:15:40 10° NE visible
07 Jul -3.1 01:48:24 47° E 01:48:24 47° E 01:50:58 10° ENE visible
07 Jul -2.2 03:21:30 10° W 03:24:35 33° NNW 03:27:42 10° NE visible
08 Jul -1.5 01:01:54 18° ENE 01:01:54 18° ENE 01:02:57 10° ENE visible
08 Jul -2.6 02:34:48 22° WNW 02:36:33 41° NNW 02:39:45 10° NE visible
08 Jul -1.7 04:10:56 10° WNW 04:13:53 27° N 04:16:49 10° ENE visible
09 Jul -3.2 01:48:13 52° NW 01:48:32 54° NNW 01:51:50 10° ENE visible
09 Jul -1.7 03:22:49 10° WNW 03:25:46 28° N 03:28:43 10° ENE visible
10 Jul -2.7 01:01:33 42° NE 01:01:33 42° NE 01:03:54 10° ENE visible
10 Jul -1.8 02:34:39 10° WNW 02:37:39 29° N 02:40:40 10° NE visible
10 Jul -1.9 04:11:56 10° NW 04:15:02 33° NNE 04:18:07 10° E visible
11 Jul -1.7 00:14:45 20° ENE 00:14:45 20° ENE 00:15:56 10° ENE visible
11 Jul -2.1 01:47:37 18° WNW 01:49:33 34° NNW 01:52:40 10° NE visible
11 Jul -1.7 03:23:55 10° NW 03:26:55 29° N 03:29:55 10° ENE visible
11 Jul -1.1 23:27:41 11° ENE 23:27:41 11° ENE 23:27:52 10° ENE visible
